User: anonymous   Login
Location: Unspecified
(0.0000°N, 0.0000°E)
Time: 04:17:46
(UTC+00:00)
Language:

SJ-11-03 DEB - Orbit

View from above orbital plane
View from above orbital plane
View from above satellite
View from above satellite

Ground track
Ground track

The orbit data is extracted from the following two-line orbital elements,

1 37732U 11030C   24060.22766203  .00003500  00000-0  11760-2 0  9992
2 37732  98.0243 153.1117 0154026 148.3021 267.3778 14.31218366658055
Epoch (UTC): 29 February 2024 05:27:49
Eccentricity: 0.0154026
inclination: 98.0243°
perigee height: 677 km
apogee height: 898 km
right ascension of ascending node: 153.1117°
argument of perigee: 148.3021°
revolutions per day: 14.31218366
mean anomaly at epoch: 267.3778°
orbit number at epoch: 65805

The dashed part of the orbit path shows where the satellite is in the earth's shadow,  

DLR